Regional Weather Roundup
Issued by NWS Upton, NY

Current Version | Previous Version | Text Only | Print | Product List | Glossary On
Versions: 1 2 3 4 5 6 7 8 9 10 11 12 13 14 15 16 17 18 19 20 21 22 23 24 25 26 27 28 29 30 31 32 33 34 35 36 37 38 39 40 41 42 43 44 45 46 47 48
000
ASUS41 KOKX 021404
RWROKX

REGIONAL WEATHER ROUNDUP
NATIONAL WEATHER SERVICE NEW YORK NY
1000 AM EDT SUN AUG 02 2015

NOTE: "FAIR" INDICATES FEW OR NO CLOUDS BELOW 12,000 FEET WITH NO
SIGNIFICANT WEATHER AND/OR OBSTRUCTIONS TO VISIBILITY.

NYZ071-072-176-178-NJZ106-104-021500-
NEW YORK CITY METRO AREA


CITY           SKY/WX    TMP DP  RH WIND       PRES   REMARKS
CENTRAL PARK   SUNNY     80  58  46 CALM      29.95S
LAGUARDIA APRT MOSUNNY   81  57  43 NE6       29.92R
KENNEDY INTL   MOSUNNY   83  57  41 SW6       29.93S
NEWARK/LIBERTY MOSUNNY   81  56  42 CALM      29.93R
BRNX BOT. GARD   N/A     81  55  41 E3        29.95S
TETERBORO      SUNNY     80  56  43 VRB3      29.92R
$$

NYZ177-179-078>081-021500-
LONG ISLAND NEW YORK

CITY           SKY/WX    TMP DP  RH WIND       PRES   REMARKS
FARMINGDALE    SUNNY     82  57  42 SE12      29.93S
ISLIP          MOSUNNY   81  57  43 SE7       29.91S
SHIRLEY        SUNNY     81  56  42 SE8       29.94R
WESTHAMPTON    SUNNY     81  56  42 SE6       29.95R
MONTAUK POINT    N/A     79  62  56 CALM      29.94R
$$

NYZ052-065-067-021500-
HUDSON VALLEY

CITY           SKY/WX    TMP DP  RH WIND       PRES   REMARKS
WHITE PLAINS   SUNNY     78  57  48 SE6       29.94R
NEWBURGH       SUNNY     75  61  60 W6        29.95R
MONTGOMERY     SUNNY     76  61  59 S7        29.93S
POUGHKEEPSIE   SUNNY     77  57  50 SW6       29.92R
ALBANY         MOSUNNY   75  57  53 SE5       29.90S
$$

NJZ001-105-106-008-010-013-015-019>022-104-021500-
NEW JERSEY

CITY           SKY/WX    TMP DP  RH WIND       PRES   REMARKS
NEWARK/LIBERTY MOSUNNY   81  56  42 CALM      29.93R
TETERBORO      SUNNY     80  56  43 VRB3      29.92R
CALDWELL       SUNNY     78  57  48 CALM      29.94R
MORRISTOWN     SUNNY     81  59  47 CALM      29.94R
SOMERVILLE     SUNNY     80  59  48 CALM      29.92S
SUSSEX         SUNNY     74  59  59 VRB5      29.95R
ANDOVER          N/A     74  65  73 CALM      29.96R
TRENTON        SUNNY     79  62  56 CALM      29.94R
MILLVILLE      PTSUNNY   82  60  47 NW6       29.94S
ATLANTIC CITY  SUNNY     82  63  52 NW5       29.94R
WRIGHTSTOWN    NOT AVBL
TOMS RIVER       N/A     81  61  50 CALM      29.94R
BELMAR         SUNNY     81  57  44 CALM      29.94R
$$

PAZ047>061-062-071-021500-
EASTERN PENNSYLVANIA

CITY           SKY/WX    TMP DP  RH WIND       PRES   REMARKS
PHILADELPHIA   MOSUNNY   83  59  44 CALM      29.94S
ALLENTOWN      SUNNY     76  61  59 W5        29.96R
SCRANTON       SUNNY     72  61  68 VRB6      29.96R
$$

CTZ002-004>006-009-010-012-RIZ004-006-007-MAZ004-011-015-021500-
SOUTHERN NEW ENGLAND
 IN CT

CITY           SKY/WX    TMP DP  RH WIND       PRES   REMARKS
BRADLEY INTL   MOSUNNY   76  58  53 SW6       29.91S
HARTFORD       SUNNY     77  58  51 VRB3      29.92R
DANBURY        SUNNY     76  56  49 S6        29.95R
WTRBRY/OXFORD  SUNNY     75  57  53 W5        29.97R
BRIDGEPORT     SUNNY     78  58  49 SW5       29.93R
MERIDEN        SUNNY     78  58  49 S8        29.93R
NEW HAVEN      SUNNY     78  57  48 SE6       29.93R
CHESTER        FAIR      75  57  53 S7        29.95R
GROTON         SUNNY     74  59  59 S7        29.92R
WILLIMANTIC    SUNNY     77  54  44 CALM      29.93R

 IN RI

CITY           SKY/WX    TMP DP  RH WIND       PRES   REMARKS
PROVIDENCE     SUNNY     79  55  43 W6        29.92S
BLOCK ISLAND     N/A     81  55  41 CALM      29.94S
WESTERLY       SUNNY     78  62  57 S7        29.93R

 IN MA

CITY           SKY/WX    TMP DP  RH WIND       PRES   REMARKS
BOSTON         SUNNY     79  53  40 SW5       29.89S
WORCESTER      SUNNY     73  54  51 W12       29.94R
WESTFIELD      SUNNY     73  58  59 S7        29.92R
PROVINCETOWN   SUNNY     73  57  56 W7        29.91R
NANTUCKET      SUNNY     80  60  50 N9        29.91R
$$

ANZ330-335-338-340-345-350-353-355-021500-
COASTAL MARINE OBSERVATIONS


STATION/POSITION TIME  SKY/WX   TEMP    WIND        PRES    VSBY  WAVE
                                AIR SEA DIR/SP/G                  HT/PER
                 (UTC)          (F)     (DEG/KT/KT) (MB)    (MI)  (FT/S)
NY HARB ENTRANCE 1250            73 77  320/  8/ 10 1012.7          3/ 7
4S FIRE IS       NOT AVBL
20S FIRE ISLAND  1250            75 75   20/  6/  8 1012.8          4/ 8
GREAT SOUTH BAY  1300            76 80  100/  6/  8   N/A
23SW MTP         1350            73 74   40/  2/  4 1013.0          3/ 8
HUDSON CANYON    NOT AVBL
KINGS POINT      1300            76 81   10/  2/  3 1012.5
EXECUTION ROCKS  1300            76      CALM  /  2   N/A
CENTRAL LI SOUND NOT AVBL
EASTERN LI SOUND 1300            69 68  290/  2/  4   N/A
ROBBINS REEF     1300            75     300/  3/  3 1012.1
$$


>>>>>>>>>>>>>>>>>>>>>>>>>>>> KEY <<<<<<<<<<<<<<<<<<<<<<<<<<<
>                                                          <
>     SKY/WX - SKY CONDITION/PRESENT WEATHER               <
>     TMP    - TEMPERATURE IN FAHRENHEIT                   <
>     DP     - DEWPOINT IN FAHRENHEIT                      <
>     RH     - RELATIVE HUMIDITY IN PERCENT                <
>     WIND   - DIRECTION AND SPEED IN MPH                  <
>     PRES   - MEAN SEA LEVEL PRESSURE IN INCHES OF HG     <
>     WCI    - WIND CHILL INDEX                            <
>     VSB    - VISIBILITY IN MILES                         <
>     HX     - HEAT INDEX                                  <
>     TC     - TEMPERATURE IN CELSIUS                      <
>     VRB    - VARIABLE WIND DIRECTION                     <
>                                                          <
>>>>>>>>>>>>>>>>>>>>>>>>>>>> KEY <<<<<<<<<<<<<<<<<<<<<<<<<<<




USA.gov is the U.S. government's official web portal to all federal, state and local government web resources and services.